Tokyo Haneda International Airport Tokyo JP
ICAO: RJTT
IATA: HND
Category: Large
Scheduled Services:

Elevation: 35 ft
TransAlt. 14000 ft.

Airport Communications:
NORTH PACIFIC AREA:126.9
APP:119.1
ATIS:128.8
CLNC DEL:121.825
:120.8
DEP:126
:118.225
:121.625
GND:121.7
:121.975
TCA:124.75
TWR:118.1
:124.35

RJTT Zoom In..

If you have problems with the map follow the link
https://www.worldairports.se/pages/airport.php?
ICAO=RJTT

Runways:

(A) RW 04 length 8202 ft width 197 ft
---- / hdg 42

(B) RW 05 length 8202 ft width 197 ft
---- / hdg 50

(C) RW 16L length 9547 ft width 197 ft
---- / hdg 157

(D) RW 16R length 9843 ft width 197 ft
---- / hdg 157

(E) RW 22 length 8202 ft width 197 ft
ILS 108.10 / hdg 222

(F) RW 23 length 8202 ft width 197 ft
ILS 110.50 / hdg 230

(G) RW 34L length 9843 ft width 197 ft
ILS 111.70 / hdg 337

(H) RW 34R length 9547 ft width 197 ft
ILS 108.90 / hdg 337

Location; RJTT
Day. 13 / Time. 20.00 Zulu
* QNH: 1017
* Temperature: 05° c. 41°f.
* Wind from: 320° Speed 07 kn.
Dewpoint: -01° c.
Visibility: 10 km or more.
Clouds: Few 2000 ft.
No significant changes expected in the near future.

RJTT 132000Z 32007KT 9999 FEW020 05/M01 Q1017 NOSIG


Wind From 320°
Speed 07 kn.

 
 
jpsmedia.com for Web Design worldairports.se 2018   terms of use